Regional Weather Roundup
Issued by NWS State College, PA

Home | Current Version | Previous Version | Graphics & Text | Print | Product List | Glossary On
Versions: 1 2 3 4 5 6 7 8 9 10 11 12 13 14 15 16 17 18 19 20 21 22 23 24 25 26 27 28 29 30 31 32 33 34 35 36 37 38 39 40 41 42 43 44 45 46 47 48 49 50
000
ASUS41 KCTP 301503
RWRCTP

REGIONAL WEATHER ROUNDUP
NATIONAL WEATHER SERVICE STATE COLLEGE PA
1100 AM EDT THU OCT 30 2014

Note: "fair" indicates few or no clouds below 12,000 feet with no
significant weather and/or obstructions to visibility.

* = STATION THAT DOES NOT REPORT PRECIPITATION /E.G. RAIN...SNOW...ETC/
    THUNDER OR FOG.

PAZ002>004-007>009-013>016-020>023-029>032-301600-
WESTERN PENNSYLVANIA

CITY           SKY/WX    TMP DP  RH WIND       PRES   REMARKS
ERIE           CLOUDY    47  35  63 N8        30.11R
MEADVILLE      LGT RAIN  43  39  86 NW6       30.09S FOG
FRANKLIN*      CLOUDY    43  37  81 CALM      30.10S
NEW CASTLE       N/A     46  40  79 NW7       30.12S
BEAVER COUNTY  CLOUDY    46  39  76 NW5       30.10S
BUTLER*        CLOUDY    46  37  71 NW6       30.12R
PITTSBURGH INT PTSUNNY   46  39  76 W6        30.10S
PITTSBURGH     SUNNY     46  36  68 W6        30.09F
INDIANA*       CLOUDY    45  39  81 CALM      30.12S
LATROBE        CLOUDY    43  39  87 W9        30.12F
WASHINGTON CO* SUNNY     46  37  71 W6        30.12S
$$

PAZ004>006-010>012-017>019-024>028-033>037-041-042-045-046-049>053-301600-
CENTRAL PENNSYLVANIA

CITY           SKY/WX    TMP DP  RH WIND       PRES   REMARKS
BRADFORD       CLOUDY    41  34  76 NW8       30.05S
DUBOIS         PTSUNNY   46  36  68 NW12      30.05S
CLEARFIELD     CLOUDY    46  34  62 NW10      30.06F
JOHNSTOWN      CLOUDY    40  35  83 NW7       30.06S
ALTOONA        PTSUNNY   46  37  71 NW8       30.07S
STATE COLLEGE  CLOUDY    46  37  71 NW7       30.07R
WILLIAMSPORT   CLOUDY    50  36  58 NW10      30.05R
SELINSGROVE    MOSUNNY   52  39  61 N6        30.06S
FT INDIANTOWN  NOT AVBL
CAPITAL CITY   PTSUNNY   53  41  63 W9        30.06S
HARRISBURG     MOSUNNY   53  40  61 NW13      30.05S
YORK           MOSUNNY   53  41  63 NW9       30.06S
$$

PAZ038>040-043-044-047-048-054-055-060>062-067>071-301600-
EASTERN PENNSYLVANIA

CITY           SKY/WX    TMP DP  RH WIND       PRES   REMARKS
SCRANTON       CLOUDY    48  34  58 NW13      30.03S
MOUNT POCONO   PTSUNNY   43  35  73 NW9G16    30.00F
ALLENTOWN      MOSUNNY   52  41  66 NW6       30.03F
QUAKERTOWN*    SUNNY     52  39  62 N9        30.04S
READING        PTSUNNY   52  41  66 N10       30.04S
LANCASTER      SUNNY     53  40  61 N8        30.05S
COATESVILLE    SUNNY     52  45  76 NW7       30.04S
POTTSTOWN      SUNNY     53  43  68 VRB3      30.04F
BLUE BELL      SUNNY     52  43  71 NW3       30.03S
DOYLESTOWN     SUNNY     52  41  66 N9G18     30.02S
WILLOW GROVE   NOT AVBL
NORTH PHILA    SUNNY     56  38  50 N9        30.04S
PHILADELPHIA   MOSUNNY   56  39  53 N10       30.03S
$$



USA.gov is the U.S. government's official web portal to all federal, state and local government web resources and services.